Terug naar catalogus

FENGYUN 1C DEB

ActiefSSO
NORAD 31186·DEBRIS·🇨🇳 China

Gelanceerd May 10, 1999 vanaf Taiyuan Satellite Launch Center

Loading…

Volgende Passages (komende 24 uur)

TLE

VersSource: Space-Track

Epoch: Sep 12, 2026, 01:01 UTC

1 31186U 99025BJQ 26255.04302351  .00000489  00000-0  28451-3 0  9996
2 31186  99.1793 182.3311 0026184  17.2078  46.2286 14.13318156999653

Volg FENGYUN 1C DEB in realtime met AllMySat

Download on the App Store